KI5QWQ Weather Reports


Display with metric or nautical units.
time (UTC)temp
F
wind
direction
speed
MPH
gust
MPH
rain 1hr
in
rain 24hr
in
rain mn
in
humidity
%
barometer
mb
20260906191519 0 283 2.0 3.0 0.00 0.00 0.00 1016.0
20260906191018 0 283 2.0 3.0 0.00 0.00 0.00 1016.2
20260906190517 0 271 2.0 3.0 0.00 0.00 0.00 1016.3
20260906190013 0 333 3.0 5.0 0.00 0.00 0.00 1016.3
20260906185511 0 154 5.0 6.0 0.00 0.00 0.00 1016.4
20260906185010 0 95 1.0 3.0 0.00 0.00 0.00 1016.4
20260906184506 0 187 3.0 6.0 0.00 0.00 0.00 1016.5
20260906184001 0 162 2.0 5.0 0.00 0.00 0.00 1016.6
20260906183457 0 300 3.0 5.0 0.00 0.00 0.00 1016.6
20260906182952 0 356 0.0 4.0 0.00 0.00 0.00 1016.6
20260906182447 0 267 1.0 3.0 0.00 0.00 0.00 1016.6
20260906181943 0 263 1.0 3.0 0.00 0.00 0.00 1016.7
20260906181439 0 271 2.0 3.0 0.00 0.00 0.00 1017.0
20260906180934 0 7 1.0 3.0 0.00 0.00 0.00 1017.0
20260906180429 0 37 1.0 4.0 0.00 0.00 0.00 1017.1
20260906175927 0 176 0.0 2.0 0.00 0.00 0.00 1017.4
20260906175422 0 231 2.0 3.0 0.00 0.00 0.00 1017.4
20260906174920 0 240 0.0 3.0 0.00 0.00 0.00 1017.4
20260906174420 0 267 1.0 4.0 0.00 0.00 0.00 1017.5
20260906173915 0 226 2.0 3.0 0.00 0.00 0.00 1017.8
20260906173410 0 235 1.0 4.0 0.00 0.00 0.00 1017.9
20260906172909 0 154 2.0 5.0 0.00 0.00 0.00 1017.9
20260906172407 0 285 1.0 5.0 0.00 0.00 0.00 1018.1
20260906171901 0 288 2.0 6.0 0.00 0.00 0.00 1018.2
20260906171356 0 233 2.0 3.0 0.00 0.00 0.00 1018.3
20260906170851 0 250 3.0 3.0 0.00 0.00 0.00 1018.4
20260906170348 0 222 2.0 4.0 0.00 0.00 0.00 1018.4
20260906165844 0 213 2.0 4.0 0.00 0.00 0.00 1018.7
20260906165343 0 261 1.0 3.0 0.00 0.00 0.00 1018.7
20260906164838 0 216 2.0 3.0 0.00 0.00 0.00 1018.8
20260906164337 0 212 2.0 4.0 0.00 0.00 0.00 1018.8
20260906163833 0 180 3.0 5.0 0.00 0.00 0.00 1018.7
20260906163329 0 135 0.0 0.0 0.00 0.00 0.00 1018.6
20260906162826 0 135 0.0 0.0 0.00 0.00 0.00 1018.8
20260906162326 0 135 0.0 0.0 0.00 0.00 0.00 1018.7
20260906161821 0 135 0.0 0.0 0.00 0.00 0.00 1018.6
20260906161320 0 135 0.0 0.0 0.00 0.00 0.00 1018.6
20260906160819 0 135 0.0 0.0 0.00 0.00 0.00 1018.7
20260906160313 0 135 0.0 0.0 0.00 0.00 0.00 1018.7
20260906155811 0 135 0.0 0.0 0.00 0.00 0.00 1018.7
20260906155307 0 200 2.0 3.0 0.00 0.00 0.00 1018.7
20260906154802 0 132 0.0 3.0 0.00 0.00 0.00 1018.5
20260906154256 0 132 0.0 3.0 0.00 0.00 0.00 1018.5
20260906153754 0 132 0.0 3.0 0.00 0.00 0.00 1018.3
20260906153243 0 132 0.0 3.0 0.00 0.00 0.00 1018.2
20260906152739 0 0.0 0.0 0.00 0.00 0.00 1018.2
20260906152233 0 0.0 0.0 0.00 0.00 0.00 1018.2
20260906151732 0 0.0 0.0 0.00 0.00 0.00 1018.1
20260906151228 0 0.0 0.0 0.00 0.00 0.00 1018.1
20260906150724 0 0.0 0.0 0.00 0.00 0.00 1018.1
20260906150219 0 0.0 0.0 0.00 0.00 0.00 1018.1
20260906145718 0 0.0 0.0 0.00 0.00 0.00 1018.3
20260906145217 0 0.0 0.0 0.00 0.00 0.00 1018.0
20260906144712 0 0.0 0.0 0.00 0.00 0.00 1018.1
20260906144207 0 0.0 0.0 0.00 0.00 0.00 1018.1
20260906143706 0 0.0 0.0 0.00 0.00 0.00 1018.1
20260906143204 0 0.0 0.0 0.00 0.00 0.00 1018.1
20260906142658 0 0.0 0.0 0.00 0.00 0.00 1018.1
20260906142153 0 0.0 0.0 0.00 0.00 0.00 1017.9
20260906141651 0 0.0 0.0 0.00 0.00 0.00 1018.2
20260906141147 0 0.0 0.0 0.00 0.00 0.00 1017.9
20260906140646 0 0.0 0.0 0.00 0.00 0.00 1017.9
20260906140141 0 0.0 0.0 0.00 0.00 0.00 1018.0
20260906135638 0 0.0 0.0 0.00 0.00 0.00 1017.8
20260906135134 0 0.0 0.0 0.00 0.00 0.00 1017.9
20260906134629 0 0.0 0.0 0.00 0.00 0.00 1017.8
20260906134125 0 0.0 0.0 0.00 0.00 0.00 1017.8
20260906133620 0 0.0 0.0 0.00 0.00 0.00 1017.8
20260906133115 0 0.0 0.0 0.00 0.00 0.00 1017.1
20260906132610 0 0.0 0.0 0.00 0.00 0.00 1017.1
20260906132106 0 0.0 0.0 0.00 0.00 0.00 1017.1
20260906131601 0 0.0 0.0 0.00 0.00 0.00 1017.1
20260906131056 0 0.0 0.0 0.00 0.00 0.00 1017.1
20260906130556 0 0.0 0.0 0.00 0.00 0.00 1017.1
20260906130051 0 0.0 0.0 0.00 0.00 0.00 1017.1
20260906125548 0 0.0 0.0 0.00 0.00 0.00 1017.1
20260906125043 0 0.0 0.0 0.00 0.00 0.00 1017.0
20260906124538 0 0.0 0.0 0.00 0.00 0.00 1017.0
20260906124033 0 0.0 0.0 0.00 0.00 0.00 1016.9
20260906123532 0 0.0 0.0 0.00 0.00 0.00 1016.7
20260906123027 0 0.0 0.0 0.00 0.00 0.00
20260906122521 0 0.0 0.0 0.00 0.00 0.00
20260906122018 0 0.0 0.0 0.00 0.00 0.00
20260906121514 0 0.0 0.0 0.00 0.00 0.00
20260906121010 0 0.0 0.0 0.00 0.00 0.00
20260906120510 0 0.0 0.0 0.00 0.00 0.00
20260906120008 0 0.0 0.0 0.00 0.00 0.00
20260906115502 0 0.0 0.0 0.00 0.00 0.00
20260906114956 0 0.0 0.0 0.00 0.00 0.00 1015.7
20260906114451 0 0.0 0.0 0.00 0.00 0.00 1015.7
20260906113947 0 0.0 0.0 0.00 0.00 0.00 1015.7
20260906113445 0 0.0 0.0 0.00 0.00 0.00 1015.7
20260906112941 0 0.0 0.0 0.00 0.00 0.00 1015.7
20260906112436 0 0.0 0.0 0.00 0.00 0.00 1015.7
20260906111932 0 0.0 0.0 0.00 0.00 0.00 1015.7
20260906111431 0 0.0 0.0 0.00 0.00 0.00 1015.7
20260906110926 0 0.0 0.0 0.00 0.00 0.00 1015.7
20260906110422 0 0.0 0.0 0.00 0.00 0.00 1015.7
20260906105920 0 0.0 0.0 0.00 0.00 0.00 1015.7
20260906105416 0 0.0 0.0 0.00 0.00 0.00 1015.7
20260906104912 0 0.0 0.0 0.00 0.00 0.00 1015.8
20260906104410 0 0.0 0.0 0.00 0.00 0.00 1015.6
20260906103910 0 0.0 0.0 0.00 0.00 0.00 1015.6
20260906103408 0 0.0 0.0 0.00 0.00 0.00 1015.6
20260906102904 0 0.0 0.0 0.00 0.00 0.00 1015.6
20260906102403 0 0.0 0.0 0.00 0.00 0.00 1015.6
20260906101858 0 0.0 0.0 0.00 0.00 0.00 1015.2
20260906101353 0 0.0 0.0 0.00 0.00 0.00 1015.2
20260906100849 0 0.0 0.0 0.00 0.00 0.00 1015.2
20260906100348 0 234 0.0 2.0 0.00 0.00 0.00 1015.2
20260906095843 0 234 0.0 2.0 0.00 0.00 0.00 1015.2
20260906095339 0 234 0.0 2.0 0.00 0.00 0.00 1015.2
20260906094838 0 234 0.0 2.0 0.00 0.00 0.00 1015.2
20260906094332 0 234 0.0 2.0 0.00 0.00 0.00 1015.2
20260906093823 0 234 0.0 2.0 0.00 0.00 0.00 1015.2
20260906093319 0 234 0.0 2.0 0.00 0.00 0.00 1015.2
20260906092813 0 234 0.0 2.0 0.00 0.00 0.00 1015.3
20260906092308 0 234 0.0 2.0 0.00 0.00 0.00 1015.3
20260906091804 0 234 0.0 2.0 0.00 0.00 0.00 1015.3
20260906091300 0 234 0.0 2.0 0.00 0.00 0.00 1015.2
20260906090756 0 267 3.0 5.0 0.00 0.00 0.00 1015.2
20260906090255 0 267 3.0 5.0 0.00 0.00 0.00 1015.2
20260906085755 0 279 2.0 3.0 0.00 0.00 0.00 1015.4
20260906085253 0 0.0 0.0 0.00 0.00 0.00 1015.1
20260906084748 0 0.0 0.0 0.00 0.00 0.00 1015.1
20260906084242 0 0.0 0.0 0.00 0.00 0.00 1015.1
20260906083738 0 0.0 0.0 0.00 0.00 0.00 1015.1
20260906083233 0 0.0 0.0 0.00 0.00 0.00 1015.5
20260906082728 0 207 1.0 2.0 0.00 0.00 0.00 1015.4
20260906082223 0 207 1.0 2.0 0.00 0.00 0.00 1015.4
20260906081719 0 207 1.0 2.0 0.00 0.00 0.00 1015.4
20260906081214 0 207 1.0 2.0 0.00 0.00 0.00 1015.4
20260906080710 0 207 1.0 2.0 0.00 0.00 0.00 1015.4
20260906080206 0 207 1.0 2.0 0.00 0.00 0.00 1015.4
20260906075700 0 207 1.0 2.0 0.00 0.00 0.00 1015.8
20260906075154 0 207 1.0 2.0 0.00 0.00 0.00 1015.8
20260906074649 0 207 1.0 2.0 0.00 0.00 0.00 1015.8
20260906074143 0 207 1.0 2.0 0.00 0.00 0.00 1015.8
20260906073638 0 207 1.0 2.0 0.00 0.00 0.00 1015.9
20260906073134 0 215 0.0 3.0 0.00 0.00 0.00 1015.9
20260906072629 0 215 0.0 3.0 0.00 0.00 0.00 1016.0
20260906072124 0 215 0.0 3.0 0.00 0.00 0.00 1016.2
20260906071620 0 215 0.0 3.0 0.00 0.00 0.00 1016.2
20260906071115 0 215 0.0 3.0 0.00 0.00 0.00 1016.2
20260906070612 0 215 0.0 3.0 0.00 0.00 0.00 1016.2
20260906070107 0 215 0.0 3.0 0.00 0.00 0.00 1016.2
20260906065607 0 215 0.0 3.0 0.00 0.00 0.00 1016.0
20260906065102 0 192 1.0 2.0 0.00 0.00 0.00 1016.3
20260906064558 0 192 1.0 2.0 0.00 0.00 0.00 1016.3
20260906064052 0 192 1.0 2.0 0.00 0.00 0.00 1016.3
20260906063547 0 0.0 0.0 0.00 0.00 0.00 1016.3
20260906063043 0 0.0 0.0 0.00 0.00 0.00 1016.2
20260906062538 0 0.0 0.0 0.00 0.00 0.00 1016.3
20260906062033 0 0.0 0.0 0.00 0.00 0.00 1016.3
20260906061529 0 0.0 0.0 0.00 0.00 0.00 1016.3
20260906061028 0 0.0 0.0 0.00 0.00 0.00 1016.4
20260906060525 0 0.0 0.0 0.00 0.00 0.00 1016.4
20260906060022 0 0.0 0.0 0.00 0.00 0.00 1016.4
20260906055517 0 209 1.0 3.0 0.00 0.00 0.00 1016.5
20260906055012 0 209 1.0 3.0 0.00 0.00 0.00 1016.4
20260906054507 0 209 1.0 3.0 0.00 0.00 0.00 1016.4
20260906054003 0 209 1.0 3.0 0.00 0.00 0.00 1016.3
20260906053459 0 209 1.0 3.0 0.00 0.00 0.00 1016.4
20260906052954 0 209 1.0 3.0 0.00 0.00 0.00 1016.4
20260906052450 0 209 1.0 3.0 0.00 0.00 0.00 1016.4
20260906051947 0 209 1.0 3.0 0.00 0.00 0.00 1016.4
20260906051442 0 209 1.0 3.0 0.00 0.00 0.00 1016.4
20260906050938 0 209 1.0 3.0 0.00 0.00 0.00 1016.4
20260906050437 0 209 1.0 3.0 0.00 0.00 0.00 1016.4
20260906045937 0 209 1.0 3.0 0.00 0.00 0.00 1016.0
20260906045435 0 167 3.0 4.0 0.00 0.00 0.00 1016.0
20260906044931 0 167 3.0 4.0 0.00 0.00 0.00 1016.0
20260906044426 0 167 3.0 4.0 0.00 0.00 0.00 1016.0
20260906043922 0 167 3.0 4.0 0.00 0.00 0.00 1016.0
20260906043417 0 167 3.0 4.0 0.00 0.00 0.00 1016.0
20260906042913 0 167 3.0 4.0 0.00 0.00 0.00 1016.0
20260906042412 0 167 3.0 4.0 0.00 0.00 0.00 1016.0
20260906041907 0 167 3.0 4.0 0.00 0.00 0.00 1016.0
20260906041403 0 167 3.0 4.0 0.00 0.00 0.00 1016.0
20260906040903 0 143 3.0 4.0 0.00 0.00 0.00 1016.0
20260906040358 0 143 3.0 4.0 0.00 0.00 0.00 1016.0
20260906035854 0 0.0 0.0 0.00 0.00 0.00 1016.2
20260906035349 0 0.0 0.0 0.00 0.00 0.00 1016.2
20260906034844 0 122 2.0 4.0 0.00 0.00 0.00 1016.2
20260906034338 0 122 2.0 4.0 0.00 0.00 0.00 1016.2
20260906033835 0 122 2.0 4.0 0.00 0.00 0.00 1016.2
20260906033334 0 122 2.0 4.0 0.00 0.00 0.00 1016.2
20260906032830 0 122 2.0 4.0 0.00 0.00 0.00 1016.0
20260906032326 0 122 2.0 4.0 0.00 0.00 0.00 1016.0
20260906031821 0 122 2.0 4.0 0.00 0.00 0.00 1016.0
20260906031316 0 122 2.0 4.0 0.00 0.00 0.00 1016.0
20260906030816 0 122 2.0 4.0 0.00 0.00 0.00 1015.5
20260906030311 0 122 2.0 4.0 0.00 0.00 0.00 1015.5
20260906025811 0 122 2.0 4.0 0.00 0.00 0.00 1015.5
20260906025306 0 122 2.0 4.0 0.00 0.00 0.00 1015.5
20260906024804 0 0.0 0.0 0.00 0.00 0.00 1015.5
20260906024303 0 0.0 0.0 0.00 0.00 0.00 1015.5
20260906023759 0 210 1.0 2.0 0.00 0.00 0.00 1015.3
20260906023254 0 210 1.0 2.0 0.00 0.00 0.00 1015.3
20260906022750 0 210 1.0 2.0 0.00 0.00 0.00 1015.3
20260906022244 0 210 1.0 2.0 0.00 0.00 0.00 1014.8
20260906021741 0 210 1.0 2.0 0.00 0.00 0.00 1015.0
20260906021234 0 210 1.0 2.0 0.00 0.00 0.00 1014.9
20260906020729 0 210 1.0 2.0 0.00 0.00 0.00 1014.7
20260906020224 0 210 1.0 2.0 0.00 0.00 0.00 1014.7
20260906015724 0 210 1.0 2.0 0.00 0.00 0.00 1014.3
20260906015222 0 210 1.0 2.0 0.00 0.00 0.00 1014.3
20260906014717 0 210 1.0 2.0 0.00 0.00 0.00 1014.3
20260906014213 0 210 1.0 2.0 0.00 0.00 0.00 1014.1
20260906013709 0 354 1.0 2.0 0.00 0.00 0.00 1014.3
20260906013208 0 179 3.0 5.0 0.00 0.00 0.00 1014.2
20260906012703 0 182 2.0 4.0 0.00 0.00 0.00 1014.1
20260906012158 0 182 2.0 4.0 0.00 0.00 0.00 1013.9
20260906011653 0 198 5.0 5.0 0.00 0.00 0.00 1013.9
20260906011148 0 200 0.0 3.0 0.00 0.00 0.00 1013.9
20260906010638 0 150 4.0 7.0 0.00 0.00 0.00 1014.0
20260906010134 0 150 4.0 7.0 0.00 0.00 0.00 1013.9
20260906005633 0 150 4.0 7.0 0.00 0.00 0.00 1013.8
20260906005133 0 150 4.0 7.0 0.00 0.00 0.00 1013.9
20260906004632 0 150 4.0 7.0 0.00 0.00 0.00 1013.9
20260906004127 0 150 4.0 7.0 0.00 0.00 0.00 1013.5
20260906003622 0 150 4.0 7.0 0.00 0.00 0.00 1013.8
20260906003118 0 150 4.0 7.0 0.00 0.00 0.00 1013.8
20260906002613 0 150 4.0 7.0 0.00 0.00 0.00 1013.6
20260906002108 0 195 1.0 2.0 0.00 0.00 0.00 1013.7
20260906001602 0 195 1.0 2.0 0.00 0.00 0.00 1013.8
20260906001057 0 195 1.0 2.0 0.00 0.00 0.00 1013.6
20260906000553 0 195 1.0 2.0 0.00 0.00 0.00 1013.5
20260906000048 0 195 1.0 2.0 0.00 0.00 0.00 1013.7
20260905235547 0 195 1.0 2.0 0.00 0.00 0.00 1013.6
20260905235043 0 195 1.0 2.0 0.00 0.00 0.00 1013.7
20260905234538 0 195 1.0 2.0 0.00 0.00 0.00 1013.2
20260905234033 0 195 1.0 2.0 0.00 0.00 0.00 1013.3
20260905233532 0 195 1.0 2.0 0.00 0.00 0.00 1013.5
20260905233027 0 195 1.0 2.0 0.00 0.00 0.00 1013.3
20260905232523 0 202 0.0 4.0 0.00 0.00 0.00 1013.3
20260905232018 0 202 0.0 4.0 0.00 0.00 0.00 1013.3
20260905231513 0 202 0.0 4.0 0.00 0.00 0.00 1013.3
20260905231010 0 202 0.0 4.0 0.00 0.00 0.00 1013.5
20260905230509 0 202 0.0 4.0 0.00 0.00 0.00 1013.2
20260905230007 0 202 0.0 4.0 0.00 0.00 0.00 1013.5
20260905225502 0 243 1.0 2.0 0.00 0.00 0.00 1013.3
20260905224957 0 195 2.0 3.0 0.00 0.00 0.00 1013.5
20260905224452 0 195 2.0 3.0 0.00 0.00 0.00 1013.2
20260905223951 0 195 2.0 3.0 0.00 0.00 0.00 1013.3
20260905223449 0 195 2.0 3.0 0.00 0.00 0.00 1013.5
20260905222944 0 195 2.0 3.0 0.00 0.00 0.00 1013.3
20260905222444 0 195 2.0 3.0 0.00 0.00 0.00 1013.5
20260905221939 0 164 2.0 3.0 0.00 0.00 0.00 1013.5
20260905221436 0 204 2.0 3.0 0.00 0.00 0.00 1013.5
20260905220932 0 148 2.0 3.0 0.00 0.00 0.00 1013.6
20260905220428 0 289 1.0 2.0 0.00 0.00 0.00 1013.7
20260905215927 0 190 3.0 6.0 0.00 0.00 0.00 1013.6
20260905215422 0 185 2.0 5.0 0.00 0.00 0.00 1013.5
20260905214918 0 185 2.0 5.0 0.00 0.00 0.00 1013.6
20260905214414 0 193 2.0 4.0 0.00 0.00 0.00 1013.6
20260905213908 0 218 0.0 0.0 0.00 0.00 0.00 1013.7
20260905213405 0 0.0 0.0 0.00 0.00 0.00 1013.6
20260905212900 0 0.0 0.0 0.00 0.00 0.00 1013.9
20260905212354 0 0.0 0.0 0.00 0.00 0.00 1013.8
20260905211854 0 0.0 0.0 0.00 0.00 0.00 1014.0
20260905211349 0 212 1.0 2.0 0.00 0.00 0.00 1014.0
20260905210846 0 212 1.0 2.0 0.00 0.00 0.00 1014.0
20260905210345 0 212 1.0 2.0 0.00 0.00 0.00 1014.2
20260905205844 0 212 1.0 2.0 0.00 0.00 0.00 1014.2
20260905205339 0 212 1.0 2.0 0.00 0.00 0.00 1014.4
20260905204838 0 212 1.0 2.0 0.00 0.00 0.00 1014.5
20260905204335 0 212 1.0 2.0 0.00 0.00 0.00 1014.7
20260905203833 0 212 1.0 2.0 0.00 0.00 0.00 1014.7
20260905203330 0 212 1.0 2.0 0.00 0.00 0.00 1014.7
20260905202825 0 212 1.0 2.0 0.00 0.00 0.00 1014.7
20260905202320 0 212 1.0 2.0 0.00 0.00 0.00 1014.8
20260905201815 0 212 1.0 2.0 0.00 0.00 0.00 1014.8
20260905201310 0 254 2.0 5.0 0.00 0.00 0.00 1014.9
20260905200805 0 254 2.0 5.0 0.00 0.00 0.00 1014.7
20260905200301 0 254 2.0 5.0 0.00 0.00 0.00 1014.9
20260905195759 0 240 1.0 3.0 0.00 0.00 0.00 1015.1
20260905195254 0 149 5.0 6.0 0.00 0.00 0.00 1015.3
20260905194749 0 218 2.0 7.0 0.00 0.00 0.00 1015.4
20260905194249 0 312 1.0 2.0 0.00 0.00 0.00 1015.3
20260905193743 0 164 2.0 3.0 0.00 0.00 0.00 1015.4
20260905193238 0 235 3.0 3.0 0.00 0.00 0.00 1015.3
20260905192733 0 235 3.0 3.0 0.00 0.00 0.00 1015.6
20260905192230 0 235 3.0 3.0 0.00 0.00 0.00 1015.7
20260905191729 0 283 4.0 4.0 0.00 0.00 0.00 1015.8